FW2338 Weather Reports


Display with metric or nautical units.
time (UTC)temp
F
wind
direction
speed
MPH
gust
MPH
rain 1hr
in
rain 24hr
in
rain mn
in
humidity
%
barometer
mb
20260906075712 73 231 0.0 2.0 0.00 0.00 0.00 91 1010.9
20260906074936 73 216 0.0 2.0 0.00 0.00 0.00 91 1011.0
20260906074436 73 157 0.0 2.0 0.00 0.00 0.00 90 1010.9
20260906073937 73 256 0.0 2.0 0.00 0.00 0.00 90 1010.9
20260906073439 73 219 2.0 2.0 0.00 0.00 0.00 90 1010.9
20260906072935 73 307 0.0 2.0 0.00 0.00 0.00 90 1011.1
20260906072436 73 307 0.0 2.0 0.00 0.00 0.00 90 1011.0
20260906071938 73 143 2.0 2.0 0.00 0.00 0.00 90 1011.2
20260906071435 73 248 0.0 2.0 0.00 0.00 0.00 90 1011.0
20260906070936 73 252 2.0 3.0 0.00 0.00 0.00 90 1011.1
20260906070437 73 240 2.0 3.0 0.00 0.00 0.00 90 1011.3
20260906070205 73 251 2.0 2.0 0.00 0.00 0.00 89 1011.0
20260906065436 74 232 2.0 2.0 0.00 0.00 0.00 89 1011.0
20260906065204 74 225 0.0 2.0 0.00 0.00 0.00 89 1011.3
20260906064436 74 216 1.0 2.0 0.00 0.00 0.00 89 1011.2
20260906063936 74 224 0.0 3.0 0.00 0.00 0.00 89 1011.3
20260906063436 74 216 2.0 3.0 0.00 0.00 0.00 88 1011.3
20260906062936 74 246 2.0 3.0 0.00 0.00 0.00 88 1011.2
20260906062710 74 198 2.0 3.0 0.00 0.00 0.00 88 1011.3
20260906061935 74 264 2.0 3.0 0.00 0.00 0.00 88 1011.3
20260906061436 74 240 1.0 2.0 0.00 0.00 0.00 88 1011.4
20260906060935 74 240 2.0 3.0 0.00 0.00 0.00 88 1011.6
20260906060436 74 227 2.0 3.0 0.00 0.00 0.00 88 1011.5
20260906055935 74 216 2.0 3.0 0.00 0.00 0.00 87 1011.6
20260906055437 74 232 0.0 3.0 0.00 0.00 0.00 87 1011.6
20260906054935 74 240 2.0 3.0 0.00 0.00 0.00 87 1011.7
20260906054436 74 285 2.0 3.0 0.00 0.00 0.00 87 1011.7
20260906053935 74 264 1.0 3.0 0.00 0.00 0.00 87 1011.7
20260906053443 74 227 3.0 3.0 0.00 0.00 0.00 87 1012.0
20260906053438 74 233 0.0 3.0 0.00 0.00 0.00 87 1011.8
20260906052436 74 256 0.0 2.0 0.00 0.00 0.00 87 1011.9
20260906051935 74 315 0.0 2.0 0.00 0.00 0.00 86 1012.2
20260906051435 74 248 0.0 2.0 0.00 0.00 0.00 86 1012.1
20260906050935 74 168 0.0 2.0 0.00 0.00 0.00 86 1012.1
20260906050436 74 161 0.0 2.0 0.00 0.00 0.00 86 1012.2
20260906045936 74 315 0.0 2.0 0.00 0.00 0.00 85 1012.2
20260906045437 74 185 2.0 3.0 0.00 0.00 0.00 85 1012.3
20260906044936 74 274 0.0 4.0 0.00 0.00 0.00 85 1012.2
20260906044709 75 248 0.0 4.0 0.00 0.00 0.00 84 1012.4
20260906043936 75 231 2.0 4.0 0.00 0.00 0.00 84 1012.3
20260906043436 74 285 4.0 4.0 0.00 0.00 0.00 84 1012.3
20260906043209 74 248 2.0 4.0 0.00 0.00 0.00 84 1012.2
20260906042436 75 261 2.0 4.0 0.00 0.00 0.00 84 1012.1
20260906041933 75 216 1.0 3.0 0.00 0.00 0.00 84 1012.3
20260906041431 75 213 2.0 3.0 0.00 0.00 0.00 84 1012.5
20260906040930 75 168 2.0 3.0 0.00 0.00 0.00 83 1012.2
20260906040431 75 232 2.0 3.0 0.00 0.00 0.00 83 1012.4
20260906035931 75 255 2.0 4.0 0.00 0.00 0.00 83 1012.2
20260906035429 75 256 1.0 4.0 0.00 0.00 0.00 82 1012.4
20260906034931 75 246 2.0 6.0 0.00 0.00 0.00 82 1012.3
20260906034433 75 245 2.0 6.0 0.00 0.00 0.00 82 1012.4
20260906033931 75 190 3.0 4.0 0.00 0.00 0.00 82 1012.5
20260906033431 75 262 2.0 4.0 0.00 0.00 0.00 82 1012.6
20260906032931 76 240 2.0 4.0 0.00 0.00 0.00 81 1012.7
20260906032430 75 285 3.0 5.0 0.00 0.00 0.00 81 1012.7
20260906031932 75 221 0.0 6.0 0.00 0.00 0.00 81 1012.7
20260906031703 75 264 1.0 7.0 0.00 0.00 0.00 82 1012.9
20260906030931 75 150 1.0 7.0 0.00 0.00 0.00 82 1012.6
20260906030431 75 240 0.0 5.0 0.00 0.00 0.00 82 1012.8
20260906025931 75 233 2.0 6.0 0.00 0.00 0.00 82 1012.2
20260906025440 75 231 0.0 2.0 0.00 0.00 0.00 82 1012.7
20260906025434 75 267 2.0 6.0 0.00 0.00 0.00 82 1012.7
20260906024431 75 253 0.0 2.0 0.00 0.00 0.00 81 1012.4
20260906023931 75 44 0.0 2.0 0.00 0.00 0.00 80 1012.3
20260906023707 76 240 0.0 2.0 0.00 0.00 0.00 80 1012.6
20260906022930 76 224 1.0 2.0 0.00 0.00 0.00 80 1012.4
20260906022430 75 51 0.0 2.0 0.00 0.00 0.00 80 1012.4
20260906021932 76 51 1.0 2.0 0.00 0.00 0.00 79 1012.1
20260906021430 76 33 0.0 2.0 0.00 0.00 0.00 79 1012.1
20260906020929 76 60 0.0 2.0 0.00 0.00 0.00 79 1012.2
20260906020431 76 240 0.0 2.0 0.00 0.00 0.00 79 1012.2
20260906020203 76 219 2.0 2.0 0.00 0.00 0.00 79 1012.2
20260906015429 76 322 0.0 2.0 0.00 0.00 0.00 78 1012.0
20260906014932 77 52 0.0 2.0 0.00 0.00 0.00 78 1012.1
20260906014431 77 52 0.0 2.0 0.00 0.00 0.00 77 1012.3
20260906013931 77 52 0.0 2.0 0.00 0.00 0.00 78 1012.1
20260906013431 77 240 0.0 2.0 0.00 0.00 0.00 77 1012.2
20260906012932 77 232 0.0 2.0 0.00 0.00 0.00 77 1012.2
20260906012432 77 240 0.0 2.0 0.00 0.00 0.00 76 1012.0
20260906011930 77 256 0.0 0.0 0.00 0.00 0.00 77 1012.1
20260906011430 77 256 0.0 2.0 0.00 0.00 0.00 76 1012.1
20260906010931 78 256 0.0 2.0 0.00 0.00 0.00 75 1011.8
20260906010432 78 256 0.0 2.0 0.00 0.00 0.00 75 1011.8
20260906005931 78 240 0.0 2.0 0.00 0.00 0.00 73 1012.1
20260906005430 78 231 0.0 2.0 0.00 0.00 0.00 73 1012.1
20260906004930 78 81 0.0 0.0 0.00 0.00 0.00 73 1011.9
20260906004431 78 81 0.0 0.0 0.00 0.00 0.00 73 1012.0
20260906003930 79 81 0.0 0.0 0.00 0.00 0.00 72 1011.8
20260906003707 79 81 0.0 0.0 0.00 0.00 0.00 73 1011.9
20260906003205 79 81 0.0 0.0 0.00 0.00 0.00 71 1011.5
20260906002431 80 81 0.0 2.0 0.00 0.00 0.00 73 1011.6
20260906001930 80 81 0.0 2.0 0.00 0.00 0.00 73 1011.5
20260906001434 80 60 0.0 1.0 0.00 0.00 0.00 73 1011.2
20260906000931 80 270 0.0 2.0 0.00 0.00 0.00 73 1011.4
20260906000433 80 270 0.0 2.0 0.00 0.00 0.00 72 1011.5
20260905235931 80 248 0.0 0.0 0.00 0.00 0.00 71 1011.4
20260905235429 81 248 0.0 0.0 0.00 0.00 0.00 70 1011.4
20260905234930 81 248 0.0 0.0 0.00 0.00 0.00 69 1010.9
20260905234431 81 248 0.0 0.0 0.00 0.00 0.00 68 1011.1
20260905233931 82 248 0.0 0.0 0.00 0.00 0.00 68 1011.2
20260905233431 82 248 0.0 2.0 0.00 0.00 0.00 66 1011.1
20260905232931 82 248 0.0 2.0 0.00 0.00 0.00 66 1010.8
20260905232430 82 323 2.0 2.0 0.00 0.00 0.00 65 1010.9
20260905231933 83 330 2.0 2.0 0.00 0.00 0.00 64 1011.0
20260905231431 83 330 0.0 3.0 0.00 0.00 0.00 64 1011.0
20260905231201 83 39 2.0 3.0 0.00 0.00 0.00 65 1010.8
20260905230431 83 330 0.0 3.0 0.00 0.00 0.00 64 1010.9
20260905225930 83 30 0.0 2.0 0.00 0.00 0.00 65 1011.0
20260905225701 83 330 0.0 2.0 0.00 0.00 0.00 65 1010.7
20260905224930 83 337 2.0 2.0 0.00 0.00 0.00 64 1010.8
20260905224430 83 341 2.0 2.0 0.00 0.00 0.00 63 1010.7
20260905223937 83 341 2.0 3.0 0.00 0.00 0.00 63 1010.7
20260905222931 84 344 0.0 3.0 0.00 0.00 0.00 63 1010.7
20260905222703 83 24 0.0 3.0 0.00 0.00 0.00 63 1010.4
20260905221931 83 39 0.0 4.0 0.00 0.00 0.00 64 1010.6
20260905221431 84 330 0.0 6.0 0.00 0.00 0.00 63 1010.7
20260905220930 84 312 2.0 6.0 0.00 0.00 0.00 63 1010.9
20260905220431 84 314 2.0 4.0 0.00 0.00 0.00 64 1010.8
20260905215931 84 324 0.0 4.0 0.00 0.00 0.00 66 1010.5
20260905215430 84 345 1.0 5.0 0.00 0.00 0.00 66 1010.6
20260905215214 83 312 2.0 4.0 0.00 0.00 0.00 67 1010.3
20260905215210 83 330 1.0 5.0 0.00 0.00 0.00 66 1010.7
20260905214206 82 337 2.0 3.0 0.00 0.00 0.00 67 1010.8
20260905213431 82 356 2.0 3.0 0.00 0.00 0.00 68 1011.0
20260905213203 82 323 0.0 4.0 0.00 0.00 0.00 68 1011.0
20260905212430 81 44 0.0 4.0 0.00 0.00 0.00 68 1011.5
20260905211933 82 330 2.0 2.0 0.00 0.00 0.00 70 1011.6
20260905211430 81 316 0.0 2.0 0.00 0.00 0.00 70 1011.7
20260905211201 81 338 0.0 3.0 0.00 0.00 0.00 71 1012.0
20260905210431 81 307 1.0 3.0 0.00 0.00 0.00 70 1011.9
20260905205931 82 240 0.0 3.0 0.00 0.00 0.00 70 1012.0
20260905205430 82 307 0.0 3.0 0.00 0.00 0.00 70 1011.7
20260905204931 82 253 2.0 3.0 0.00 0.00 0.00 70 1011.8
20260905204431 82 323 2.0 2.0 0.00 0.00 0.00 70 1011.7
20260905203931 81 232 2.0 2.0 0.00 0.00 0.00 70 1011.4
20260905203434 82 240 0.0 3.0 0.00 0.00 0.00 71 1011.4
20260905202931 82 274 2.0 3.0 0.00 0.00 0.00 71 1011.4
20260905202429 81 249 0.0 4.0 0.00 0.00 0.00 71 1011.2
20260905201932 81 314 2.0 4.0 0.00 0.00 0.00 71 1011.2
20260905201431 81 353 2.0 5.0 0.00 0.00 0.00 70 1011.2
20260905201200 82 348 0.0 6.0 0.00 0.00 0.00 70 1011.1
20260905200431 82 335 2.0 9.0 0.00 0.00 0.00 70 1011.1
20260905200203 82 33 4.0 10.0 0.00 0.00 0.00 68 1011.1
20260905195430 82 48 4.0 10.0 0.00 0.00 0.00 68 1011.2
20260905195200 83 40 5.0 9.0 0.00 0.00 0.00 67 1011.4
20260905194431 83 330 2.0 17.0 0.00 0.00 0.00 66 1011.1
20260905193932 83 44 4.0 17.0 0.00 0.00 0.00 65 1011.0
20260905193705 85 8 12.0 17.0 0.00 0.00 0.00 62 1010.6
20260905192931 86 19 4.0 12.0 0.00 0.00 0.00 61 1011.2
20260905192441 89 25 6.0 22.0 0.00 0.00 0.00 55 1010.9
20260905192436 88 13 8.0 22.0 0.00 0.00 0.00 58 1010.7
20260905191431 94 22 19.0 19.0 0.00 0.00 0.00 49 1011.1
20260905190931 94 15 4.0 6.0 0.00 0.00 0.00 48 1010.8
20260905190431 95 52 3.0 6.0 0.00 0.00 0.00 47 1010.9
20260905185931 94 76 3.0 10.0 0.00 0.00 0.00 47 1010.8
20260905185431 94 22 3.0 10.0 0.00 0.00 0.00 46 1010.8
20260905184940 97 51 8.0 8.0 0.00 0.00 0.00 45 1011.1
20260905184936 95 63 5.0 8.0 0.00 0.00 0.00 45 1011.0
20260905183931 97 227 0.0 6.0 0.00 0.00 0.00 45 1011.3
20260905183431 96 45 2.0 6.0 0.00 0.00 0.00 47 1011.1
20260905182931 97 65 0.0 6.0 0.00 0.00 0.00 46 1011.1
20260905182705 97 84 0.0 9.0 0.00 0.00 0.00 46 1011.0
20260905181932 95 45 5.0 9.0 0.00 0.00 0.00 47 1011.2
20260905181431 97 127 1.0 6.0 0.00 0.00 0.00 45 1011.4
20260905180931 96 234 0.0 5.0 0.00 0.00 0.00 47 1011.4
20260905180431 96 150 2.0 5.0 0.00 0.00 0.00 46 1011.4
20260905175930 96 26 2.0 6.0 0.00 0.00 0.00 47 1011.5
20260905175431 95 33 2.0 6.0 0.00 0.00 0.00 49 1011.8
20260905175205 94 67 4.0 5.0 0.00 0.00 0.00 50 1011.9
20260905174431 93 51 1.0 5.0 0.00 0.00 0.00 52 1012.1
20260905173931 94 40 5.0 5.0 0.00 0.00 0.00 50 1012.1
20260905173431 95 52 3.0 5.0 0.00 0.00 0.00 49 1012.3
20260905172931 94 18 0.0 3.0 0.00 0.00 0.00 51 1012.4
20260905172430 95 33 0.0 6.0 0.00 0.00 0.00 51 1012.4
20260905171932 94 90 0.0 8.0 0.00 0.00 0.00 51 1012.3
20260905171705 93 77 5.0 8.0 0.00 0.00 0.00 50 1012.5
20260905170930 94 150 0.0 5.0 0.00 0.00 0.00 52 1012.7
20260905170705 93 89 3.0 8.0 0.00 0.00 0.00 53 1012.5
20260905165931 93 69 4.0 8.0 0.00 0.00 0.00 52 1012.7
20260905165429 93 60 0.0 5.0 0.00 0.00 0.00 54 1013.0
20260905164931 93 150 2.0 5.0 0.00 0.00 0.00 55 1013.0
20260905164701 92 41 2.0 6.0 0.00 0.00 0.00 57 1013.2
20260905163930 92 60 2.0 6.0 0.00 0.00 0.00 58 1013.2
20260905163431 92 84 0.0 5.0 0.00 0.00 0.00 58 1013.0
20260905162930 92 71 2.0 5.0 0.00 0.00 0.00 58 1013.4
20260905162701 92 79 0.0 4.0 0.00 0.00 0.00 59 1013.3
20260905161930 91 66 2.0 4.0 0.00 0.00 0.00 58 1013.1
20260905161700 91 150 0.0 4.0 0.00 0.00 0.00 61 1013.4
20260905160931 91 127 1.0 4.0 0.00 0.00 0.00 63 1013.6
20260905160430 90 67 2.0 3.0 0.00 0.00 0.00 63 1013.6
20260905155929 89 90 2.0 3.0 0.00 0.00 0.00 64 1013.5
20260905155430 89 264 0.0 3.0 0.00 0.00 0.00 66 1013.6
20260905154932 89 345 1.0 3.0 0.00 0.00 0.00 65 1013.7
20260905154431 89 44 0.0 3.0 0.00 0.00 0.00 67 1013.6
20260905153930 88 30 2.0 3.0 0.00 0.00 0.00 68 1013.7
20260905153434 88 251 2.0 3.0 0.00 0.00 0.00 68 1013.6
20260905152930 88 353 0.0 3.0 0.00 0.00 0.00 69 1013.7
20260905152431 87 330 0.0 3.0 0.00 0.00 0.00 69 1013.6
20260905151930 87 234 2.0 4.0 0.00 0.00 0.00 71 1013.7
20260905151430 87 334 2.0 4.0 0.00 0.00 0.00 72 1013.4
20260905150931 86 330 0.0 3.0 0.00 0.00 0.00 72 1013.6
20260905150431 86 249 0.0 3.0 0.00 0.00 0.00 73 1013.4
20260905145929 85 330 0.0 3.0 0.00 0.00 0.00 74 1013.8
20260905145441 85 232 0.0 4.0 0.00 0.00 0.00 75 1013.9
20260905145437 85 224 0.0 4.0 0.00 0.00 0.00 74 1013.9
20260905144430 85 140 2.0 2.0 0.00 0.00 0.00 75 1013.7
20260905143930 84 51 0.0 2.0 0.00 0.00 0.00 76 1013.6
20260905143430 84 224 1.0 3.0 0.00 0.00 0.00 77 1014.1
20260905142929 83 257 0.0 3.0 0.00 0.00 0.00 77 1014.0
20260905142429 83 173 0.0 3.0 0.00 0.00 0.00 77 1014.0
20260905141930 83 240 2.0 3.0 0.00 0.00 0.00 78 1013.9
20260905141702 83 240 2.0 3.0 0.00 0.00 0.00 78 1013.8
20260905140930 82 224 2.0 3.0 0.00 0.00 0.00 78 1014.1
20260905140704 82 255 2.0 3.0 0.00 0.00 0.00 80 1013.9
20260905135929 82 240 2.0 3.0 0.00 0.00 0.00 80 1013.9
20260905135430 81 256 0.0 3.0 0.00 0.00 0.00 81 1013.9
20260905135203 81 216 1.0 4.0 0.00 0.00 0.00 81 1014.0
20260905134431 81 216 0.0 4.0 0.00 0.00 0.00 81 1013.9
20260905134156 80 233 2.0 4.0 0.00 0.00 0.00 82 1014.0
20260905133422 80 270 2.0 4.0 0.00 0.00 0.00 83 1013.9
20260905132923 80 225 2.0 3.0 0.00 0.00 0.00 83 1014.2
20260905132422 80 227 3.0 3.0 0.00 0.00 0.00 84 1014.0
20260905132154 79 213 0.0 5.0 0.00 0.00 0.00 84 1014.3
20260905131424 79 215 2.0 5.0 0.00 0.00 0.00 84 1014.2
20260905130922 79 232 0.0 5.0 0.00 0.00 0.00 84 1014.2
20260905130424 78 225 2.0 4.0 0.00 0.00 0.00 85 1014.0
20260905125922 78 225 0.0 4.0 0.00 0.00 0.00 85 1014.1
20260905125423 78 212 4.0 4.0 0.00 0.00 0.00 86 1014.4
20260905125155 78 224 1.0 5.0 0.00 0.00 0.00 86 1014.3
20260905124654 78 229 2.0 5.0 0.00 0.00 0.00 86 1014.4
20260905123922 78 233 2.0 6.0 0.00 0.00 0.00 87 1014.5
20260905123423 78 248 0.0 6.0 0.00 0.00 0.00 87 1014.3
20260905123153 77 249 3.0 4.0 0.00 0.00 0.00 88 1014.5
20260905122422 77 213 2.0 4.0 0.00 0.00 0.00 88 1014.4
20260905121925 77 218 2.0 4.0 0.00 0.00 0.00 88 1014.2
20260905121422 77 215 3.0 4.0 0.00 0.00 0.00 88 1014.2
20260905120923 77 230 2.0 3.0 0.00 0.00 0.00 88 1014.0
20260905120424 77 224 1.0 4.0 0.00 0.00 0.00 89 1014.1
20260905120156 76 231 1.0 4.0 0.00 0.00 0.00 89 1014.1
20260905115650 76 215 3.0 3.0 0.00 0.00 0.00 89 1014.1
20260905114924 76 201 2.0 4.0 0.00 0.00 0.00 89 1014.2
20260905114654 76 210 0.0 4.0 0.00 0.00 0.00 89 1013.9
20260905114152 76 246 2.0 4.0 0.00 0.00 0.00 89 1014.0
20260905113422 76 215 2.0 4.0 0.00 0.00 0.00 89 1013.7
20260905112923 76 248 3.0 4.0 0.00 0.00 0.00 89 1013.7
20260905112424 76 259 2.0 4.0 0.00 0.00 0.00 88 1013.7
20260905111924 76 240 0.0 3.0 0.00 0.00 0.00 88 1013.6
20260905111422 77 203 3.0 3.0 0.00 0.00 0.00 88 1013.6
20260905111155 77 213 0.0 4.0 0.00 0.00 0.00 88 1013.7
20260905110422 77 218 2.0 4.0 0.00 0.00 0.00 88 1013.3
20260905105924 77 240 2.0 4.0 0.00 0.00 0.00 87 1013.2
20260905105422 77 213 3.0 4.0 0.00 0.00 0.00 87 1013.2
20260905104924 77 240 2.0 4.0 0.00 0.00 0.00 87 1012.9
20260905104656 77 211 2.0 3.0 0.00 0.00 0.00 87 1013.0
20260905103923 77 205 2.0 3.0 0.00 0.00 0.00 87 1013.1
20260905103423 77 227 3.0 3.0 0.00 0.00 0.00 87 1012.9
20260905103156 77 240 2.0 2.0 0.00 0.00 0.00 88 1012.9
20260905102423 77 201 2.0 2.0 0.00 0.00 0.00 88 1012.8
20260905101924 77 186 0.0 2.0 0.00 0.00 0.00 88 1012.9
20260905101656 77 164 0.0 0.0 0.00 0.00 0.00 87 1012.6
20260905100922 77 164 0.0 2.0 0.00 0.00 0.00 87 1012.9
20260905100423 77 164 0.0 2.0 0.00 0.00 0.00 87 1012.8
20260905095922 77 150 0.0 1.0 0.00 0.00 0.00 87 1012.6
20260905095422 77 158 0.0 2.0 0.00 0.00 0.00 86 1012.6
20260905094922 77 155 0.0 2.0 0.00 0.00 0.00 86 1012.9
20260905094421 78 316 0.0 2.0 0.00 0.00 0.00 85 1012.9
20260905093923 78 316 0.0 2.0 0.00 0.00 0.00 85 1012.9
20260905093651 78 270 0.0 3.0 0.00 0.00 0.00 85 1012.7
20260905092910 78 224 1.0 3.0 0.00 0.00 0.00 85 1013.0
20260905092410 78 228 2.0 4.0 0.00 0.00 0.00 84 1013.1
20260905091910 78 255 2.0 4.0 0.00 0.00 0.00 84 1013.0
20260905091643 78 213 3.0 3.0 0.00 0.00 0.00 84 1012.8
20260905090909 78 222 3.0 3.0 0.00 0.00 0.00 84 1012.7
20260905090411 78 219 2.0 3.0 0.00 0.00 0.00 84 1012.7
20260905085909 78 240 2.0 3.0 0.00 0.00 0.00 84 1013.0
20260905085642 78 240 0.0 3.0 0.00 0.00 0.00 84 1012.8
20260905084911 79 234 2.0 3.0 0.00 0.00 0.00 84 1013.0
20260905084412 78 240 2.0 4.0 0.00 0.00 0.00 83 1012.9
20260905083910 78 227 2.0 4.0 0.00 0.00 0.00 83 1013.0
20260905083641 79 216 2.0 3.0 0.00 0.00 0.00 83 1013.1
20260905082910 79 246 2.0 4.0 0.00 0.00 0.00 83 1013.3
20260905082411 79 244 3.0 4.0 0.00 0.00 0.00 82 1013.4
20260905081909 79 240 2.0 3.0 0.00 0.00 0.00 82 1013.2
20260905081410 79 222 3.0 3.0 0.00 0.00 0.00 82 1013.4
20260905080911 79 224 1.0 4.0 0.00 0.00 0.00 81 1013.4
20260905080418 79 213 2.0 3.0 0.00 0.00 0.00 81 1013.3
20260905080413 79 249 1.0 4.0 0.00 0.00 0.00 81 1013.3